Year,Month,Day,Hour,Minute,Value (Times are PST for temperature in C)
2013,07,24,00,00,21.00
2013,07,24,00,01,21.00
2013,07,24,00,02,21.00
2013,07,24,00,03,21.10
2013,07,24,00,04,21.10
2013,07,24,00,05,21.00
2013,07,24,00,06,21.00
2013,07,24,00,07,21.00
2013,07,24,00,08,21.00
2013,07,24,00,09,21.00
2013,07,24,00,10,20.90
2013,07,24,00,11,20.90
2013,07,24,00,12,20.90
2013,07,24,00,13,20.80
2013,07,24,00,14,20.80
2013,07,24,00,15,20.70
2013,07,24,00,16,20.60
2013,07,24,00,17,20.60
2013,07,24,00,18,20.60
2013,07,24,00,19,20.60
2013,07,24,00,20,20.60
2013,07,24,00,21,20.60
2013,07,24,00,22,20.70
2013,07,24,00,23,20.70
2013,07,24,00,24,20.70
2013,07,24,00,25,20.80
2013,07,24,00,26,20.80
2013,07,24,00,27,20.80
2013,07,24,00,28,20.70
2013,07,24,00,29,20.70
2013,07,24,00,30,20.70
2013,07,24,00,31,20.70
2013,07,24,00,32,20.70
2013,07,24,00,33,20.60
2013,07,24,00,34,20.50
2013,07,24,00,35,20.50
2013,07,24,00,36,20.40
2013,07,24,00,37,20.40
2013,07,24,00,38,20.30
2013,07,24,00,39,20.20
2013,07,24,00,40,20.10
2013,07,24,00,41,20.00
2013,07,24,00,42,20.00
2013,07,24,00,43,19.90
2013,07,24,00,44,19.80
2013,07,24,00,45,19.70
2013,07,24,00,46,19.70
2013,07,24,00,47,19.70
2013,07,24,00,48,19.70
2013,07,24,00,49,19.70
2013,07,24,00,50,19.70
2013,07,24,00,51,19.70
2013,07,24,00,52,19.70
2013,07,24,00,53,19.80
2013,07,24,00,54,19.80
2013,07,24,00,55,19.90
2013,07,24,00,56,19.90
2013,07,24,00,57,20.00
2013,07,24,00,58,20.00
2013,07,24,00,59,20.10
2013,07,24,01,00,20.10
2013,07,24,01,01,20.10
2013,07,24,01,02,20.20
2013,07,24,01,03,20.20
2013,07,24,01,04,20.20
2013,07,24,01,05,20.30
2013,07,24,01,06,20.30
2013,07,24,01,07,20.30
2013,07,24,01,08,20.30
2013,07,24,01,09,20.30
2013,07,24,01,10,20.30
2013,07,24,01,11,20.20
2013,07,24,01,12,20.20
2013,07,24,01,13,20.20
2013,07,24,01,14,20.20
2013,07,24,01,15,20.10
2013,07,24,01,16,20.10
2013,07,24,01,17,20.10
2013,07,24,01,18,20.10
2013,07,24,01,19,20.10
2013,07,24,01,20,20.10
2013,07,24,01,21,20.10
2013,07,24,01,22,20.10
2013,07,24,01,23,20.10
2013,07,24,01,24,20.10
2013,07,24,01,25,20.10
2013,07,24,01,26,20.10
2013,07,24,01,27,20.10
2013,07,24,01,28,20.10
2013,07,24,01,29,20.00
2013,07,24,01,30,20.00
2013,07,24,01,31,19.90
2013,07,24,01,32,19.90
2013,07,24,01,33,19.80
2013,07,24,01,34,19.80
2013,07,24,01,35,19.70
2013,07,24,01,36,19.70
2013,07,24,01,37,19.60
2013,07,24,01,38,19.60
2013,07,24,01,39,19.50
2013,07,24,01,40,19.50
2013,07,24,01,41,19.40
2013,07,24,01,42,19.40
2013,07,24,01,43,19.30
2013,07,24,01,44,19.30
2013,07,24,01,45,19.20
2013,07,24,01,46,19.20
2013,07,24,01,47,19.10
2013,07,24,01,48,19.10
2013,07,24,01,49,19.10
2013,07,24,01,50,19.10
2013,07,24,01,51,19.10
2013,07,24,01,52,19.10
2013,07,24,01,53,19.10
2013,07,24,01,54,19.10
2013,07,24,01,55,19.10
2013,07,24,01,56,19.10
2013,07,24,01,57,19.10
2013,07,24,01,58,19.10
2013,07,24,01,59,19.10
2013,07,24,02,00,19.10
2013,07,24,02,01,19.10
2013,07,24,02,02,19.10
2013,07,24,02,03,19.10
2013,07,24,02,04,19.10
2013,07,24,02,05,19.10
2013,07,24,02,06,19.10
2013,07,24,02,07,19.10
2013,07,24,02,08,19.10
2013,07,24,02,09,19.10
2013,07,24,02,10,19.10
2013,07,24,02,11,19.10
2013,07,24,02,12,19.10
2013,07,24,02,13,19.10
2013,07,24,02,14,19.10
2013,07,24,02,15,19.10
2013,07,24,02,16,19.10
2013,07,24,02,17,19.10
2013,07,24,02,18,19.10
2013,07,24,02,19,19.10
2013,07,24,02,20,19.00
2013,07,24,02,21,19.00
2013,07,24,02,22,19.00
2013,07,24,02,23,19.00
2013,07,24,02,24,19.00
2013,07,24,02,25,19.00
2013,07,24,02,26,19.10
2013,07,24,02,27,19.10
2013,07,24,02,28,19.10
2013,07,24,02,29,19.10
2013,07,24,02,30,19.10
2013,07,24,02,31,19.10
2013,07,24,02,32,19.00
2013,07,24,02,33,19.00
2013,07,24,02,34,19.00
2013,07,24,02,35,19.00
2013,07,24,02,36,18.90
2013,07,24,02,37,18.90
2013,07,24,02,38,18.90
2013,07,24,02,39,18.90
2013,07,24,02,40,18.90
2013,07,24,02,41,18.90
2013,07,24,02,42,18.90
2013,07,24,02,43,18.90
2013,07,24,02,44,18.90
2013,07,24,02,45,18.90
2013,07,24,02,46,18.80
2013,07,24,02,47,18.80
2013,07,24,02,48,18.80
2013,07,24,02,49,18.80
2013,07,24,02,50,18.70
2013,07,24,02,51,18.70
2013,07,24,02,52,18.70
2013,07,24,02,53,18.70
2013,07,24,02,54,18.70
2013,07,24,02,55,18.70
2013,07,24,02,56,18.70
2013,07,24,02,57,18.60
2013,07,24,02,58,18.60
2013,07,24,02,59,18.60
2013,07,24,03,00,18.50
2013,07,24,03,01,18.50
2013,07,24,03,02,18.40
2013,07,24,03,03,18.40
2013,07,24,03,04,18.40
2013,07,24,03,05,18.30
2013,07,24,03,06,18.30
2013,07,24,03,07,18.30
2013,07,24,03,08,18.20
2013,07,24,03,09,18.20
2013,07,24,03,10,18.20
2013,07,24,03,11,18.10
2013,07,24,03,12,18.10
2013,07,24,03,13,18.00
2013,07,24,03,14,18.00
2013,07,24,03,15,17.90
2013,07,24,03,16,17.90
2013,07,24,03,17,17.90
2013,07,24,03,18,17.90
2013,07,24,03,19,17.90
2013,07,24,03,20,18.00
2013,07,24,03,21,18.00
2013,07,24,03,22,18.00
2013,07,24,03,23,18.10
2013,07,24,03,24,18.10
2013,07,24,03,25,18.10
2013,07,24,03,26,18.20
2013,07,24,03,27,18.20
2013,07,24,03,28,18.20
2013,07,24,03,29,18.20
2013,07,24,03,30,18.20
2013,07,24,03,31,18.20
2013,07,24,03,32,18.20
2013,07,24,03,33,18.20
2013,07,24,03,34,18.20
2013,07,24,03,35,18.20
2013,07,24,03,36,18.10
2013,07,24,03,37,18.10
2013,07,24,03,38,18.10
2013,07,24,03,39,18.00
2013,07,24,03,40,18.00
2013,07,24,03,41,18.00
2013,07,24,03,42,18.00
2013,07,24,03,43,17.90
2013,07,24,03,44,17.90
2013,07,24,03,45,17.90
2013,07,24,03,46,17.90
2013,07,24,03,47,17.90
2013,07,24,03,48,17.80
2013,07,24,03,49,17.70
2013,07,24,03,50,17.70
2013,07,24,03,51,17.60
2013,07,24,03,52,17.60
2013,07,24,03,53,17.60
2013,07,24,03,54,17.60
2013,07,24,03,55,17.50
2013,07,24,03,56,17.50
2013,07,24,03,57,17.50
2013,07,24,03,58,17.50
2013,07,24,03,59,17.50
2013,07,24,04,00,17.40
2013,07,24,04,01,17.50
2013,07,24,04,02,17.40
2013,07,24,04,03,17.40
2013,07,24,04,04,17.40
2013,07,24,04,05,17.40
2013,07,24,04,06,17.40
2013,07,24,04,07,17.40
2013,07,24,04,08,17.40
2013,07,24,04,09,17.40
2013,07,24,04,10,17.40
2013,07,24,04,11,17.40
2013,07,24,04,12,17.40
2013,07,24,04,13,17.40
2013,07,24,04,14,17.40
2013,07,24,04,15,17.40
2013,07,24,04,16,17.40
2013,07,24,04,17,17.50
2013,07,24,04,18,17.50
2013,07,24,04,19,17.50
2013,07,24,04,20,17.60
2013,07,24,04,21,17.60
2013,07,24,04,22,17.60
2013,07,24,04,23,17.60
2013,07,24,04,24,17.60
2013,07,24,04,25,17.60
2013,07,24,04,26,17.60
2013,07,24,04,27,17.50
2013,07,24,04,28,17.50
2013,07,24,04,29,17.50
2013,07,24,04,30,17.40
2013,07,24,04,31,17.40
2013,07,24,04,32,17.40
2013,07,24,04,33,17.30
2013,07,24,04,34,17.30
2013,07,24,04,35,17.30
2013,07,24,04,36,17.20
2013,07,24,04,37,17.20
2013,07,24,04,38,17.10
2013,07,24,04,39,17.00
2013,07,24,04,40,17.00
2013,07,24,04,41,16.90
2013,07,24,04,42,16.80
2013,07,24,04,43,16.80
2013,07,24,04,44,16.70
2013,07,24,04,45,16.60
2013,07,24,04,46,16.60
2013,07,24,04,47,16.50
2013,07,24,04,48,16.50
2013,07,24,04,49,16.40
2013,07,24,04,50,16.40
2013,07,24,04,51,16.30
2013,07,24,04,52,16.30
2013,07,24,04,53,16.20
2013,07,24,04,54,16.20
2013,07,24,04,55,16.20
2013,07,24,04,56,16.10
2013,07,24,04,57,16.10
2013,07,24,04,58,16.10
2013,07,24,04,59,16.10
2013,07,24,05,00,16.00
2013,07,24,05,01,16.00
2013,07,24,05,02,15.90
2013,07,24,05,03,15.90
2013,07,24,05,04,15.80
2013,07,24,05,05,15.80
2013,07,24,05,06,15.70
2013,07,24,05,07,15.70
2013,07,24,05,08,15.60
2013,07,24,05,09,15.60
2013,07,24,05,10,15.60
2013,07,24,05,11,15.60
2013,07,24,05,12,15.60
2013,07,24,05,13,15.70
2013,07,24,05,14,15.70
2013,07,24,05,15,15.80
2013,07,24,05,16,15.90
2013,07,24,05,17,16.00
2013,07,24,05,18,16.10
2013,07,24,05,19,16.20
2013,07,24,05,20,16.20
2013,07,24,05,21,16.20
2013,07,24,05,22,16.30
2013,07,24,05,23,16.30
2013,07,24,05,24,16.30
2013,07,24,05,25,16.30
2013,07,24,05,26,16.30
2013,07,24,05,27,16.30
2013,07,24,05,28,16.20
2013,07,24,05,29,16.10
2013,07,24,05,30,15.90
2013,07,24,05,31,15.80
2013,07,24,05,32,15.70
2013,07,24,05,33,15.50
2013,07,24,05,34,15.50
2013,07,24,05,35,15.40
2013,07,24,05,36,15.40
2013,07,24,05,37,15.30
2013,07,24,05,38,15.20
2013,07,24,05,39,15.20
2013,07,24,05,40,15.10
2013,07,24,05,41,15.00
2013,07,24,05,42,15.00
2013,07,24,05,43,15.00
2013,07,24,05,44,15.00
2013,07,24,05,45,15.00
2013,07,24,05,46,15.00
2013,07,24,05,47,15.00
2013,07,24,05,48,15.00
2013,07,24,05,49,15.00
2013,07,24,05,50,15.00
2013,07,24,05,51,15.00
2013,07,24,05,52,15.00
2013,07,24,05,53,15.00
2013,07,24,05,54,15.00
2013,07,24,05,55,15.00
2013,07,24,05,56,15.00
2013,07,24,05,57,14.90
2013,07,24,05,58,14.90
2013,07,24,05,59,14.80
2013,07,24,06,00,14.80
2013,07,24,06,01,14.80
2013,07,24,06,02,14.80
2013,07,24,06,03,14.80
2013,07,24,06,04,14.80
2013,07,24,06,05,14.80
2013,07,24,06,06,14.80
2013,07,24,06,07,14.90
2013,07,24,06,08,14.90
2013,07,24,06,09,14.90
2013,07,24,06,10,14.90
2013,07,24,06,11,14.80
2013,07,24,06,12,14.80
2013,07,24,06,13,14.80
2013,07,24,06,14,14.70
2013,07,24,06,15,14.70
2013,07,24,06,16,14.70
2013,07,24,06,17,14.60
2013,07,24,06,18,14.60
2013,07,24,06,19,14.60
2013,07,24,06,20,14.60
2013,07,24,06,21,14.60
2013,07,24,06,22,14.50
2013,07,24,06,23,14.50
2013,07,24,06,24,14.50
2013,07,24,06,25,14.50
2013,07,24,06,26,14.50
2013,07,24,06,27,14.60
2013,07,24,06,28,14.60
2013,07,24,06,29,14.60
2013,07,24,06,30,14.60
2013,07,24,06,31,14.60
2013,07,24,06,32,14.70
2013,07,24,06,33,14.70
2013,07,24,06,34,14.70
2013,07,24,06,35,14.70
2013,07,24,06,36,14.70
2013,07,24,06,37,14.80
2013,07,24,06,38,14.80
2013,07,24,06,39,14.80
2013,07,24,06,40,14.80
2013,07,24,06,41,14.80
2013,07,24,06,42,14.90
2013,07,24,06,43,14.90
2013,07,24,06,44,15.00
2013,07,24,06,45,15.00
2013,07,24,06,46,15.00
2013,07,24,06,47,15.00
2013,07,24,06,48,15.20
2013,07,24,06,49,15.30
2013,07,24,06,50,15.40
2013,07,24,06,51,15.40
2013,07,24,06,52,15.50
2013,07,24,06,53,15.60
2013,07,24,06,54,15.70
2013,07,24,06,55,15.80
2013,07,24,06,56,15.90
2013,07,24,06,57,15.90
2013,07,24,06,58,16.00
2013,07,24,06,59,16.10
2013,07,24,07,00,16.20
2013,07,24,07,01,16.30
2013,07,24,07,02,16.40
2013,07,24,07,03,16.50
2013,07,24,07,04,16.60
2013,07,24,07,05,16.70
2013,07,24,07,06,16.80
2013,07,24,07,07,16.90
2013,07,24,07,08,17.00
2013,07,24,07,09,17.10
2013,07,24,07,10,17.20
2013,07,24,07,11,17.30
2013,07,24,07,12,17.40
2013,07,24,07,13,17.60
2013,07,24,07,14,17.70
2013,07,24,07,15,17.80
2013,07,24,07,16,17.90
2013,07,24,07,17,18.00
2013,07,24,07,18,18.10
2013,07,24,07,19,18.20
2013,07,24,07,20,18.30
2013,07,24,07,21,18.30
2013,07,24,07,22,18.40
2013,07,24,07,23,18.50
2013,07,24,07,24,18.60
2013,07,24,07,25,18.70
2013,07,24,07,26,18.80
2013,07,24,07,27,18.90
2013,07,24,07,28,19.00
2013,07,24,07,29,19.10
2013,07,24,07,30,19.20
2013,07,24,07,31,19.40
2013,07,24,07,32,19.50
2013,07,24,07,33,19.60
2013,07,24,07,34,19.70
2013,07,24,07,35,19.80
2013,07,24,07,36,19.90
2013,07,24,07,37,20.00
2013,07,24,07,38,20.10
2013,07,24,07,39,20.20
2013,07,24,07,40,20.30
2013,07,24,07,41,20.30
2013,07,24,07,42,20.20
2013,07,24,07,43,20.10
2013,07,24,07,44,20.10
2013,07,24,07,45,20.00
2013,07,24,07,46,19.90
2013,07,24,07,47,19.80
2013,07,24,07,48,19.70
2013,07,24,07,49,19.70
2013,07,24,07,50,19.60
2013,07,24,07,51,19.50
2013,07,24,07,52,19.40
2013,07,24,07,53,19.30
2013,07,24,07,54,19.30
2013,07,24,07,55,19.30
2013,07,24,07,56,19.30
2013,07,24,07,57,19.30
2013,07,24,07,58,19.30
2013,07,24,07,59,19.30
2013,07,24,08,00,19.30
2013,07,24,08,01,19.30
2013,07,24,08,02,19.30
2013,07,24,08,03,19.30
2013,07,24,08,04,19.40
2013,07,24,08,05,19.40
2013,07,24,08,06,19.40
2013,07,24,08,07,19.40
2013,07,24,08,08,19.40
2013,07,24,08,09,19.40
2013,07,24,08,10,19.40
2013,07,24,08,11,19.40
2013,07,24,08,12,19.40
2013,07,24,08,13,19.40
2013,07,24,08,14,19.50
2013,07,24,08,15,19.50
2013,07,24,08,16,19.60
2013,07,24,08,17,19.70
2013,07,24,08,18,19.70
2013,07,24,08,19,19.80
2013,07,24,08,20,19.80
2013,07,24,08,21,19.90
2013,07,24,08,22,19.90
2013,07,24,08,23,19.90
2013,07,24,08,24,19.90
2013,07,24,08,25,19.90
2013,07,24,08,26,19.90
2013,07,24,08,27,19.80
2013,07,24,08,28,19.80
2013,07,24,08,29,19.80
2013,07,24,08,30,19.90
2013,07,24,08,31,20.00
2013,07,24,08,32,20.00
2013,07,24,08,33,20.10
2013,07,24,08,34,20.20
2013,07,24,08,35,20.20
2013,07,24,08,36,20.30
2013,07,24,08,37,20.30
2013,07,24,08,38,20.30
2013,07,24,08,39,20.40
2013,07,24,08,40,20.30
2013,07,24,08,41,20.30
2013,07,24,08,42,20.20
2013,07,24,08,43,20.00
2013,07,24,08,44,19.90
2013,07,24,08,45,19.90
2013,07,24,08,46,19.80
2013,07,24,08,47,19.80
2013,07,24,08,48,19.70
2013,07,24,08,49,19.70
2013,07,24,08,50,19.80
2013,07,24,08,51,19.80
2013,07,24,08,52,19.80
2013,07,24,08,53,19.80
2013,07,24,08,54,19.80
2013,07,24,08,55,19.80
2013,07,24,08,56,19.80
2013,07,24,08,57,19.80
2013,07,24,08,58,19.90
2013,07,24,08,59,19.90
2013,07,24,09,00,20.00
2013,07,24,09,01,20.10
2013,07,24,09,02,20.20
2013,07,24,09,03,20.20
2013,07,24,09,04,20.30
2013,07,24,09,05,20.30
2013,07,24,09,06,20.30
2013,07,24,09,07,20.30
2013,07,24,09,08,20.30
2013,07,24,09,09,20.20
2013,07,24,09,10,20.20
2013,07,24,09,11,20.10
2013,07,24,09,12,20.00
2013,07,24,09,13,19.90
2013,07,24,09,14,19.80
2013,07,24,09,15,19.70
2013,07,24,09,16,19.70
2013,07,24,09,17,19.70
2013,07,24,09,18,19.70
2013,07,24,09,19,19.70
2013,07,24,09,20,19.60
2013,07,24,09,21,19.60
2013,07,24,09,22,19.60
2013,07,24,09,23,19.60
2013,07,24,09,24,19.60
2013,07,24,09,25,19.50
2013,07,24,09,26,19.50
2013,07,24,09,27,19.50
2013,07,24,09,28,19.60
2013,07,24,09,29,19.50
2013,07,24,09,30,19.50
2013,07,24,09,31,19.40
2013,07,24,09,32,19.30
2013,07,24,09,33,19.30
2013,07,24,09,34,19.30
2013,07,24,09,35,19.30
2013,07,24,09,36,19.30
2013,07,24,09,37,19.30
2013,07,24,09,38,19.40
2013,07,24,09,39,19.40
2013,07,24,09,40,19.50
2013,07,24,09,41,19.60
2013,07,24,09,42,19.60
2013,07,24,09,43,19.70
2013,07,24,09,44,19.70
2013,07,24,09,45,19.80
2013,07,24,09,46,19.90
2013,07,24,09,47,19.90
2013,07,24,09,48,20.00
2013,07,24,09,49,20.10
2013,07,24,09,50,20.10
2013,07,24,09,51,20.20
2013,07,24,09,52,20.30
2013,07,24,09,53,20.40
2013,07,24,09,54,20.40
2013,07,24,09,55,20.50
2013,07,24,09,56,20.60
2013,07,24,09,57,20.60
2013,07,24,09,58,20.50
2013,07,24,09,59,20.50
2013,07,24,10,00,20.50
2013,07,24,10,01,20.50
2013,07,24,10,02,20.50
2013,07,24,10,03,20.50
2013,07,24,10,04,20.50
2013,07,24,10,05,20.50
2013,07,24,10,06,20.40
2013,07,24,10,07,20.40
2013,07,24,10,08,20.40
2013,07,24,10,09,20.30
2013,07,24,10,10,20.20
2013,07,24,10,11,20.20
2013,07,24,10,12,20.10
2013,07,24,10,13,20.10
2013,07,24,10,14,20.10
2013,07,24,10,15,20.10
2013,07,24,10,16,20.10
2013,07,24,10,17,20.20
2013,07,24,10,18,20.20
2013,07,24,10,19,20.30
2013,07,24,10,20,20.20
2013,07,24,10,21,20.20
2013,07,24,10,22,20.20
2013,07,24,10,23,20.10
2013,07,24,10,24,20.00
2013,07,24,10,25,19.90
2013,07,24,10,26,19.80
2013,07,24,10,27,19.90
2013,07,24,10,28,20.00
2013,07,24,10,29,20.10
2013,07,24,10,30,20.10
2013,07,24,10,31,20.20
2013,07,24,10,32,20.10
2013,07,24,10,33,20.10
2013,07,24,10,34,20.10
2013,07,24,10,35,20.00
2013,07,24,10,36,20.10
2013,07,24,10,37,20.10
2013,07,24,10,38,20.20
2013,07,24,10,39,20.20
2013,07,24,10,40,20.30
2013,07,24,10,41,20.30
2013,07,24,10,42,20.30
2013,07,24,10,43,20.30
2013,07,24,10,44,20.30
2013,07,24,10,45,20.30
2013,07,24,10,46,20.30
2013,07,24,10,47,20.30
2013,07,24,10,48,20.30
2013,07,24,10,49,20.30
2013,07,24,10,50,20.20
2013,07,24,10,51,20.20
2013,07,24,10,52,20.20
2013,07,24,10,53,20.30
2013,07,24,10,54,20.40
2013,07,24,10,55,20.50
2013,07,24,10,56,20.60
2013,07,24,10,57,20.70
2013,07,24,10,58,20.70
2013,07,24,10,59,20.70
2013,07,24,11,00,20.60
2013,07,24,11,01,20.50
2013,07,24,11,02,20.40
2013,07,24,11,03,20.40
2013,07,24,11,04,20.40
2013,07,24,11,05,20.50
2013,07,24,11,06,20.50
2013,07,24,11,07,20.60
2013,07,24,11,08,20.60
2013,07,24,11,09,20.60
2013,07,24,11,10,20.70
2013,07,24,11,11,20.70
2013,07,24,11,12,20.70
2013,07,24,11,13,20.70
2013,07,24,11,14,20.60
2013,07,24,11,15,20.60
2013,07,24,11,16,20.50
2013,07,24,11,17,20.50
2013,07,24,11,18,20.60
2013,07,24,11,19,20.60
2013,07,24,11,20,20.70
2013,07,24,11,21,20.80
2013,07,24,11,22,20.90
2013,07,24,11,23,21.00
2013,07,24,11,24,21.10
2013,07,24,11,25,21.10
2013,07,24,11,26,21.10
2013,07,24,11,27,21.10
2013,07,24,11,28,21.20
2013,07,24,11,29,21.20
2013,07,24,11,30,21.10
2013,07,24,11,31,21.10
2013,07,24,11,32,21.10
2013,07,24,11,33,21.10
2013,07,24,11,34,21.00
2013,07,24,11,35,21.00
2013,07,24,11,36,21.00
2013,07,24,11,37,21.00
2013,07,24,11,38,21.10
2013,07,24,11,39,21.10
2013,07,24,11,40,21.10
2013,07,24,11,41,21.20
2013,07,24,11,42,21.20
2013,07,24,11,43,21.30
2013,07,24,11,44,21.40
2013,07,24,11,45,21.50
2013,07,24,11,46,21.70
2013,07,24,11,47,21.70
2013,07,24,11,48,21.80
2013,07,24,11,49,21.70
2013,07,24,11,50,21.70
2013,07,24,11,51,21.70
2013,07,24,11,52,21.70
2013,07,24,11,53,21.70
2013,07,24,11,54,21.70
2013,07,24,11,55,21.70
2013,07,24,11,56,21.70
2013,07,24,11,57,21.70
2013,07,24,11,58,21.80
2013,07,24,11,59,21.80
2013,07,24,12,00,21.80
2013,07,24,12,01,21.80
2013,07,24,12,02,21.80
2013,07,24,12,03,21.80
2013,07,24,12,04,21.80
2013,07,24,12,05,21.70
2013,07,24,12,06,21.70
2013,07,24,12,07,21.70
2013,07,24,12,08,21.70
2013,07,24,12,09,21.60
2013,07,24,12,10,21.50
2013,07,24,12,11,21.50
2013,07,24,12,12,21.50
2013,07,24,12,13,21.40
2013,07,24,12,14,21.40
2013,07,24,12,15,21.40
2013,07,24,12,16,21.50
2013,07,24,12,17,21.50
2013,07,24,12,18,21.40
2013,07,24,12,19,21.40
2013,07,24,12,20,21.40
2013,07,24,12,21,21.50
2013,07,24,12,22,21.50
2013,07,24,12,23,21.60
2013,07,24,12,24,21.60
2013,07,24,12,25,21.60
2013,07,24,12,26,21.60
2013,07,24,12,27,21.60
2013,07,24,12,28,21.60
2013,07,24,12,29,21.70
2013,07,24,12,30,21.70
2013,07,24,12,31,21.80
2013,07,24,12,32,21.90
2013,07,24,12,33,22.00
2013,07,24,12,34,22.20
2013,07,24,12,35,22.40
2013,07,24,12,36,22.50
2013,07,24,12,37,22.60
2013,07,24,12,38,22.60
2013,07,24,12,39,22.60
2013,07,24,12,40,22.70
2013,07,24,12,41,22.70
2013,07,24,12,42,22.80
2013,07,24,12,43,22.80
2013,07,24,12,44,22.80
2013,07,24,12,45,22.70
2013,07,24,12,46,22.60
2013,07,24,12,47,22.60
2013,07,24,12,48,22.60
2013,07,24,12,49,22.50
2013,07,24,12,50,22.40
2013,07,24,12,51,22.40
2013,07,24,12,52,22.40
2013,07,24,12,53,22.40
2013,07,24,12,54,22.40
2013,07,24,12,55,22.40
2013,07,24,12,56,22.50
2013,07,24,12,57,22.50
2013,07,24,12,58,22.60
2013,07,24,12,59,22.60
2013,07,24,13,00,22.70
2013,07,24,13,01,22.70
2013,07,24,13,02,22.70
2013,07,24,13,03,22.70
2013,07,24,13,04,22.70
2013,07,24,13,05,22.70
2013,07,24,13,06,22.70
2013,07,24,13,07,22.70
2013,07,24,13,08,22.70
2013,07,24,13,09,22.80
2013,07,24,13,10,22.90
2013,07,24,13,11,23.00
2013,07,24,13,12,23.10
2013,07,24,13,13,23.10
2013,07,24,13,14,23.20
2013,07,24,13,15,23.20
2013,07,24,13,16,23.20
2013,07,24,13,17,23.30
2013,07,24,13,18,23.40
2013,07,24,13,19,23.50
2013,07,24,13,20,23.60
2013,07,24,13,21,23.60
2013,07,24,13,22,23.70
2013,07,24,13,23,23.60
2013,07,24,13,24,23.60
2013,07,24,13,25,23.50
2013,07,24,13,26,23.30
2013,07,24,13,27,23.30
2013,07,24,13,28,23.20
2013,07,24,13,29,23.20
2013,07,24,13,30,23.10
2013,07,24,13,31,22.90
2013,07,24,13,32,22.80
2013,07,24,13,33,22.80
2013,07,24,13,34,22.80
2013,07,24,13,35,22.90
2013,07,24,13,36,23.00
2013,07,24,13,37,23.00
2013,07,24,13,38,23.10
2013,07,24,13,39,23.10
2013,07,24,13,40,23.20
2013,07,24,13,41,23.30
2013,07,24,13,42,23.30
2013,07,24,13,43,23.30
2013,07,24,13,44,23.30
2013,07,24,13,45,23.30
2013,07,24,13,46,23.20
2013,07,24,13,47,23.20
2013,07,24,13,48,23.10
2013,07,24,13,49,23.10
2013,07,24,13,50,23.10
2013,07,24,13,51,23.20
2013,07,24,13,52,23.30
2013,07,24,13,53,23.40
2013,07,24,13,54,23.50
2013,07,24,13,55,23.50
2013,07,24,13,56,23.60
2013,07,24,13,57,23.60
2013,07,24,13,58,23.60
2013,07,24,13,59,23.60
2013,07,24,14,00,23.60
2013,07,24,14,01,23.70
2013,07,24,14,02,23.80
2013,07,24,14,03,23.80
2013,07,24,14,04,23.80
2013,07,24,14,05,23.80
2013,07,24,14,06,23.80
2013,07,24,14,07,23.80
2013,07,24,14,08,23.80
2013,07,24,14,09,23.80
2013,07,24,14,10,23.90
2013,07,24,14,11,23.90
2013,07,24,14,12,23.80
2013,07,24,14,13,23.70
2013,07,24,14,14,23.70
2013,07,24,14,15,23.60
2013,07,24,14,16,23.50
2013,07,24,14,17,23.40
2013,07,24,14,18,23.40
2013,07,24,14,19,23.30
2013,07,24,14,20,23.30
2013,07,24,14,21,23.40
2013,07,24,14,22,23.50
2013,07,24,14,23,23.70
2013,07,24,14,24,23.80
2013,07,24,14,25,23.80
2013,07,24,14,26,23.90
2013,07,24,14,27,23.90
2013,07,24,14,28,24.00
2013,07,24,14,29,24.00
2013,07,24,14,30,24.00
2013,07,24,14,31,24.10
2013,07,24,14,32,24.00
2013,07,24,14,33,24.00
2013,07,24,14,34,23.90
2013,07,24,14,35,23.90
2013,07,24,14,36,23.90
2013,07,24,14,37,23.90
2013,07,24,14,38,24.00
2013,07,24,14,39,24.00
2013,07,24,14,40,23.90
2013,07,24,14,41,23.80
2013,07,24,14,42,23.70
2013,07,24,14,43,23.70
2013,07,24,14,44,23.60
2013,07,24,14,45,23.60
2013,07,24,14,46,23.60
2013,07,24,14,47,23.60
2013,07,24,14,48,23.60
2013,07,24,14,49,23.70
2013,07,24,14,50,23.80
2013,07,24,14,51,23.90
2013,07,24,14,52,24.00
2013,07,24,14,53,24.10
2013,07,24,14,54,24.30
2013,07,24,14,55,24.40
2013,07,24,14,56,24.50
2013,07,24,14,57,24.60
2013,07,24,14,58,24.70
2013,07,24,14,59,24.80
2013,07,24,15,00,24.80
2013,07,24,15,01,24.80
2013,07,24,15,02,24.80
2013,07,24,15,03,24.70
2013,07,24,15,04,24.70
2013,07,24,15,05,24.70
2013,07,24,15,06,24.60
2013,07,24,15,07,24.60
2013,07,24,15,08,24.60
2013,07,24,15,09,24.60
2013,07,24,15,10,24.60
2013,07,24,15,11,24.60
2013,07,24,15,12,24.60
2013,07,24,15,13,24.70
2013,07,24,15,14,24.80
2013,07,24,15,15,25.00
2013,07,24,15,16,25.10
2013,07,24,15,17,25.30
2013,07,24,15,18,25.30
2013,07,24,15,19,25.40
2013,07,24,15,20,25.40
2013,07,24,15,21,25.40
2013,07,24,15,22,25.40
2013,07,24,15,23,25.30
2013,07,24,15,24,25.30
2013,07,24,15,25,25.30
2013,07,24,15,26,25.30
2013,07,24,15,27,25.30
2013,07,24,15,28,25.20
2013,07,24,15,29,25.20
2013,07,24,15,30,25.20
2013,07,24,15,31,25.30
2013,07,24,15,32,25.30
2013,07,24,15,33,25.30
2013,07,24,15,34,25.40
2013,07,24,15,35,25.40
2013,07,24,15,36,25.50
2013,07,24,15,37,25.50
2013,07,24,15,38,25.60
2013,07,24,15,39,25.60
2013,07,24,15,40,25.60
2013,07,24,15,41,25.70
2013,07,24,15,42,25.70
2013,07,24,15,43,25.90
2013,07,24,15,44,25.90
2013,07,24,15,45,25.90
2013,07,24,15,46,25.90
2013,07,24,15,47,25.90
2013,07,24,15,48,25.80
2013,07,24,15,49,25.80
2013,07,24,15,50,25.70
2013,07,24,15,51,25.70
2013,07,24,15,52,25.70
2013,07,24,15,53,25.70
2013,07,24,15,54,25.70
2013,07,24,15,55,25.80
2013,07,24,15,56,25.70
2013,07,24,15,57,25.70
2013,07,24,15,58,25.80
2013,07,24,15,59,25.80
2013,07,24,16,00,25.90
2013,07,24,16,01,25.90
2013,07,24,16,02,26.00
2013,07,24,16,03,26.10
2013,07,24,16,04,26.20
2013,07,24,16,05,26.20
2013,07,24,16,06,26.20
2013,07,24,16,07,26.20
2013,07,24,16,08,26.30
2013,07,24,16,09,26.40
2013,07,24,16,10,26.40
2013,07,24,16,11,26.40
2013,07,24,16,12,26.40
2013,07,24,16,13,26.40
2013,07,24,16,14,26.40
2013,07,24,16,15,26.50
2013,07,24,16,16,26.50
2013,07,24,16,17,26.60
2013,07,24,16,18,26.50
2013,07,24,16,19,26.50
2013,07,24,16,20,26.50
2013,07,24,16,21,26.50
2013,07,24,16,22,26.50
2013,07,24,16,23,26.50
2013,07,24,16,24,26.50
2013,07,24,16,25,26.50
2013,07,24,16,26,26.50
2013,07,24,16,27,26.40
2013,07,24,16,28,26.20
2013,07,24,16,29,26.10
2013,07,24,16,30,25.90
2013,07,24,16,31,25.70
2013,07,24,16,32,25.70
2013,07,24,16,33,25.60
2013,07,24,16,34,25.60
2013,07,24,16,35,25.60
2013,07,24,16,36,25.60
2013,07,24,16,37,25.50
2013,07,24,16,38,25.50
2013,07,24,16,39,25.60
2013,07,24,16,40,25.60
2013,07,24,16,41,25.70
2013,07,24,16,42,25.80
2013,07,24,16,43,25.90
2013,07,24,16,44,25.90
2013,07,24,16,45,26.10
2013,07,24,16,46,26.20
2013,07,24,16,47,26.20
2013,07,24,16,48,26.20
2013,07,24,16,49,26.20
2013,07,24,16,50,26.30
2013,07,24,16,51,26.30
2013,07,24,16,52,26.40
2013,07,24,16,53,26.40
2013,07,24,16,54,26.40
2013,07,24,16,55,26.40
2013,07,24,16,56,26.40
2013,07,24,16,57,26.40
2013,07,24,16,58,26.40
2013,07,24,16,59,26.40
2013,07,24,17,00,26.50
2013,07,24,17,01,26.50
2013,07,24,17,02,26.50
2013,07,24,17,03,26.50
2013,07,24,17,04,26.40
2013,07,24,17,05,26.40
2013,07,24,17,06,26.40
2013,07,24,17,07,26.40
2013,07,24,17,08,26.40
2013,07,24,17,09,26.50
2013,07,24,17,10,26.50
2013,07,24,17,11,26.50
2013,07,24,17,12,26.50
2013,07,24,17,13,26.50
2013,07,24,17,14,26.40
2013,07,24,17,15,26.30
2013,07,24,17,16,26.20
2013,07,24,17,17,26.10
2013,07,24,17,18,26.10
2013,07,24,17,19,26.10